Buckeye, AZ

5:24 PM MST on October 23, 2017 (GMT -0700)
Buckeye Municipal

Weather History for KBXK - December, 2012

Change the Weather History Date:

Monday, December 3, 2012

  Actual Average (KGYR) Record (KGYR)
Temperature  
Mean Temperature 60 °F -  
Max Temperature 73 °F 65 °F 77 °F (2003)
Min Temperature 48 °F 41 °F 32 °F (1996)
Degree Days  
Heating Degree Days 4    
Growing Degree Days 10 (Base 50)    
Moisture  
Dew Point 41 °F    
Average Humidity 50    
Maximum Humidity 71    
Minimum Humidity 33    
Precipitation  
Precipitation 0.00 in - - ()
Sea Level Pressure  
Sea Level Pressure 30.08 in    
Wind  
Wind Speed 3 mph (NNE)    
Max Wind Speed 10 mph    
Max Gust Speed -    
Visibility 10 miles    
Events      
Averages and records for this station are not official NWS values.
T = Trace of Precipitation, MM = Missing Value Source: NWS Daily Summary

Daily Weather History Graph

Daily Weather History Graph

Search for Another Location

Airport or City:

Trip Planner

Search our weather history database for the weather conditions in past years. The results will help you decide how hot, cold, wet, or windy it might be!

Date:

Astronomy

Dec. 03, 2012 Rise Set
Actual Time 7:18 AM MST 5:22 PM MST
Civil Twilight 6:51 AM MST 5:49 PM MST
Nautical Twilight 6:20 AM MST 6:20 PM MST
Astronomical Twilight 5:50 AM MST 6:50 PM MST
Moon 10:05 PM MST (12/3) 10:51 AM MST (12/3)
Length of Visible Light 10h 58m
Length of Day
10h 03m
Waning Gibbous, 77% of the Moon is Illuminated
Dec 3
Waning Gibbous
Dec 6
Last Quarter
Dec 13
New
Dec 19
First Quarter
Dec 28
Full

Hourly Weather History & Observations

Time (MST) Temp. Dew Point Humidity Pressure Visibility Wind Dir Wind Speed Gust Speed Precip Events Conditions
12:15 AM 55.4 °F 39.2 °F 54% 30.03 in 9.0 mi NNE 3.5 mph - N/A   Mostly Cloudy
12:35 AM 55.4 °F 39.2 °F 54% 30.02 in 10.0 mi Calm Calm - N/A   Mostly Cloudy
12:55 AM 55.4 °F 39.2 °F 54% 30.02 in 10.0 mi East 5.8 mph - N/A   Scattered Clouds
1:15 AM 57.2 °F 39.2 °F 51% 30.02 in 10.0 mi East 5.8 mph - N/A   Partly Cloudy
1:35 AM 55.4 °F 39.2 °F 54% 30.02 in 10.0 mi ENE 6.9 mph - N/A   Partly Cloudy
1:55 AM 55.4 °F 39.2 °F 54% 30.03 in 10.0 mi NE 8.1 mph - N/A   Clear
2:15 AM 55.4 °F 39.2 °F 54% 30.03 in 10.0 mi ENE 5.8 mph - N/A   Partly Cloudy
2:35 AM 55.4 °F 41.0 °F 58% 30.04 in 10.0 mi NE 5.8 mph - N/A   Partly Cloudy
2:55 AM 55.4 °F 41.0 °F 58% 30.04 in 10.0 mi NE 6.9 mph - N/A   Clear
3:15 AM 53.6 °F 39.2 °F 58% 30.04 in 10.0 mi Calm Calm - N/A   Clear
3:35 AM 53.6 °F 41.0 °F 62% 30.03 in 10.0 mi Calm Calm - N/A   Partly Cloudy
3:55 AM 51.8 °F 39.2 °F 62% 30.04 in 7.0 mi North 3.5 mph - N/A   Partly Cloudy
4:15 AM 51.8 °F 39.2 °F 62% 30.04 in 10.0 mi Calm Calm - N/A   Clear
4:55 AM 50.0 °F 39.2 °F 66% 30.05 in 10.0 mi East 3.5 mph - N/A   Clear
5:15 AM 50.0 °F 41.0 °F 71% 30.05 in 10.0 mi Calm Calm - N/A   Clear
5:35 AM 50.0 °F 39.2 °F 66% 30.05 in 10.0 mi Calm Calm - N/A   Clear
5:55 AM 50.0 °F 37.4 °F 62% 30.06 in 10.0 mi ESE 3.5 mph - N/A   Unknown
6:15 AM 50.0 °F 41.0 °F 71% 30.07 in 10.0 mi Calm Calm - N/A   Unknown
6:55 AM 48.2 °F 37.4 °F 66% 30.09 in 5.0 mi NNW 3.5 mph - N/A   Clear
7:15 AM 48.2 °F 37.4 °F 66% 30.08 in 10.0 mi Calm Calm - N/A   Clear
7:35 AM 48.2 °F 37.4 °F 66% 30.09 in 10.0 mi Calm Calm - N/A   Clear
7:55 AM 50.0 °F 37.4 °F 62% 30.09 in 10.0 mi Calm Calm - N/A   Clear
8:15 AM 53.6 °F 39.2 °F 58% 30.09 in 10.0 mi Calm Calm - N/A   Clear
8:35 AM 55.4 °F 39.2 °F 54% 30.10 in 10.0 mi Calm Calm - N/A   Clear
8:55 AM 57.2 °F 41.0 °F 55% 30.11 in 10.0 mi Calm Calm - N/A   Clear
9:35 AM 62.6 °F 41.0 °F 45% 30.12 in 10.0 mi NE 4.6 mph - N/A   Clear
9:55 AM 62.6 °F 41.0 °F 45% 30.14 in 8.0 mi Calm Calm - N/A   Clear
10:15 AM 64.4 °F 41.0 °F 42% 30.14 in 9.0 mi Calm Calm - N/A   Clear
10:55 AM 66.2 °F 44.6 °F 46% 30.13 in 10.0 mi ESE 6.9 mph - N/A   Clear
11:15 AM 66.2 °F 42.8 °F 43% 30.13 in 9.0 mi East 6.9 mph - N/A   Clear
11:35 AM 68.0 °F 44.6 °F 43% 30.12 in 10.0 mi East 8.1 mph - N/A   Clear
11:55 AM 68.0 °F 44.6 °F 43% 30.12 in 10.0 mi ESE 5.8 mph - N/A   Clear
12:15 PM 68.0 °F 44.6 °F 43% 30.11 in 10.0 mi SE 5.8 mph - N/A   Clear
12:35 PM 68.0 °F 44.6 °F 43% 30.10 in 10.0 mi ESE 3.5 mph - N/A   Clear
12:55 PM 69.8 °F 44.6 °F 40% 30.10 in 10.0 mi Calm Calm - N/A   Clear
1:15 PM 71.6 °F 44.6 °F 38% 30.08 in 10.0 mi South 5.8 mph - N/A   Clear
1:35 PM 71.6 °F 44.6 °F 38% 30.07 in 10.0 mi Calm Calm - N/A   Clear
1:55 PM 71.6 °F 44.6 °F 38% 30.07 in 9.0 mi Calm Calm - N/A   Clear
2:15 PM 73.4 °F 44.6 °F 36% 30.07 in 9.0 mi WSW 3.5 mph - N/A   Clear
2:55 PM 73.4 °F 42.8 °F 33% 30.06 in 10.0 mi West 3.5 mph - N/A   Clear
3:15 PM 73.4 °F 42.8 °F 33% 30.05 in 10.0 mi Calm Calm - N/A   Clear
3:35 PM 73.4 °F 42.8 °F 33% 30.05 in 10.0 mi SSW 3.5 mph - N/A   Clear
3:55 PM 73.4 °F 42.8 °F 33% 30.05 in 10.0 mi Calm Calm - N/A   Clear
4:15 PM 73.4 °F 42.8 °F 33% 30.05 in 9.0 mi Calm Calm - N/A   Clear
4:55 PM 73.4 °F 42.8 °F 33% 30.06 in 10.0 mi WSW 3.5 mph - N/A   Clear
5:15 PM 71.6 °F 44.6 °F 38% 30.06 in 10.0 mi WSW 4.6 mph - N/A   Clear
5:35 PM 68.0 °F 44.6 °F 43% 30.06 in 10.0 mi WSW 4.6 mph - N/A   Clear
5:55 PM 68.0 °F 44.6 °F 43% 30.07 in 10.0 mi WSW 4.6 mph - N/A   Clear
6:15 PM 66.2 °F 44.6 °F 46% 30.07 in 10.0 mi West 4.6 mph - N/A   Clear
6:35 PM 64.4 °F 44.6 °F 49% 30.08 in 10.0 mi Calm Calm - N/A   Clear
6:55 PM 64.4 °F 41.0 °F 42% 30.09 in 10.0 mi NE 3.5 mph - N/A   Unknown
7:15 PM 62.6 °F 41.0 °F 45% 30.09 in 10.0 mi Calm Calm - N/A   Clear
7:35 PM 62.6 °F 41.0 °F 45% 30.10 in 10.0 mi North 5.8 mph - N/A   Clear
7:55 PM 60.8 °F 39.2 °F 45% 30.10 in 10.0 mi North 6.9 mph - N/A   Clear
8:15 PM 59.0 °F 39.2 °F 48% 30.11 in 10.0 mi North 8.1 mph - N/A   Clear
8:35 PM 59.0 °F 39.2 °F 48% 30.11 in 10.0 mi NNW 8.1 mph - N/A   Unknown
8:55 PM 60.8 °F 39.2 °F 45% 30.12 in 10.0 mi North 10.4 mph - N/A   Unknown
9:15 PM 60.8 °F 41.0 °F 48% 30.13 in 10.0 mi North 10.4 mph - N/A   Clear
9:35 PM 60.8 °F 41.0 °F 48% 30.13 in 10.0 mi North 8.1 mph - N/A   Clear
9:55 PM 59.0 °F 41.0 °F 51% 30.13 in 10.0 mi North 9.2 mph - N/A   Clear
10:15 PM 60.8 °F 41.0 °F 48% 30.14 in 10.0 mi NNW 9.2 mph - N/A   Clear
10:35 PM 60.8 °F 44.6 °F 55% 30.14 in 10.0 mi East 3.5 mph - N/A   Unknown
10:55 PM 57.2 °F 44.6 °F 63% 30.15 in 10.0 mi Calm Calm - N/A   Clear
11:15 PM 57.2 °F 44.6 °F 63% 30.15 in 10.0 mi Calm Calm - N/A   Unknown
11:35 PM 55.4 °F 42.8 °F 63% 30.15 in 10.0 mi NW 4.6 mph - N/A   Clear
11:55 PM 57.2 °F 41.0 °F 55% 30.15 in 10.0 mi West 5.8 mph - N/A   Unknown